When you browse on this site, cookies collect data to enhance your experience and personalize the content and advertising you see.
Visit our Privacy Policy to learn more. By continuing to use the site, you agree to this use of cookies and data.
  • In United Kingdom
  • List of Countries
  • For 7 days
  • Water Temperature
  • Satellite Maps
  • Weather Map
  • Weather Widgets
  • user-avatar
    Login

    Hourly Weather Alajuela

    Today, 23 April, Tuesday

    Time Temperature Precipitation Wind Pressure Humidity
    00:00 +22°C° 0 mm 1 mps 681 mmHg 82%
    01:00 +21°C° 0 mm 1 mps 681 mmHg 81%
    02:00 +21°C° 0 mm 1 mps 680 mmHg 81%
    03:00 +21°C° 0 mm 1 mps 680 mmHg 81%
    04:00 +21°C° 0 mm 1 mps 680 mmHg 80%
    05:00 +21°C° 0 mm 1 mps 680 mmHg 80%
    06:00 +21°C° 0 mm 1 mps 680 mmHg 79%
    07:00 +23°C° 0 mm 1 mps 681 mmHg 72%
    08:00 +26°C° 0 mm 1 mps 682 mmHg 64%
    09:00 +28°C° 0 mm 1 mps 683 mmHg 56%
    10:00 +29°C° 0 mm 1 mps 683 mmHg 52%
    11:00 +31°C° 0 mm 1 mps 683 mmHg 47%
    12:00 +33°C° 0 mm 1 mps 683 mmHg 42%
    13:00 +31°C° 0.1 mm 1 mps 682 mmHg 51%
    14:00 +29°C° 0.1 mm 1 mps 681 mmHg 60%
    15:00 +26°C° 0.1 mm 1 mps 679 mmHg 68%
    16:00 +25°C° 0.2 mm 1 mps 679 mmHg 75%
    17:00 +24°C° 0.2 mm 1 mps 679 mmHg 81%
    18:00 +23°C° 0.2 mm 1 mps 679 mmHg 87%
    19:00 +23°C° 0.1 mm 1 mps 680 mmHg 88%
    20:00 +23°C° 0.1 mm 1 mps 680 mmHg 88%
    21:00 +23°C° 0.1 mm 1 mps 681 mmHg 88%
    22:00 +23°C° 0 mm 1 mps 681 mmHg 89%
    23:00 +22°C° 0 mm 1 mps 681 mmHg 90%

    Tomorrow, 24 April, Wednesday

    Time Temperature Precipitation Wind Pressure Humidity
    00:00 +22°C° 0 mm 1 mps 680 mmHg 91%
    01:00 +21°C° 0 mm 1 mps 680 mmHg 90%
    02:00 +21°C° 0 mm 1 mps 680 mmHg 90%
    03:00 +21°C° 0 mm 1 mps 679 mmHg 90%
    04:00 +21°C° 0 mm 1 mps 679 mmHg 89%
    05:00 +21°C° 0 mm 1 mps 680 mmHg 87%
    06:00 +21°C° 0 mm 1 mps 680 mmHg 86%
    07:00 +24°C° 0 mm 1 mps 681 mmHg 75%
    08:00 +26°C° 0 mm 1 mps 682 mmHg 65%
    09:00 +29°C° 0 mm 1 mps 683 mmHg 54%
    10:00 +30°C° 0 mm 1 mps 683 mmHg 50%
    11:00 +32°C° 0 mm 1 mps 683 mmHg 47%
    12:00 +33°C° 0 mm 1 mps 683 mmHg 44%
    13:00 +31°C° 0.1 mm 1 mps 681 mmHg 52%
    14:00 +28°C° 0.1 mm 1 mps 680 mmHg 60%
    15:00 +26°C° 0.1 mm 1 mps 679 mmHg 69%
    16:00 +25°C° 0.1 mm 1 mps 679 mmHg 73%
    17:00 +25°C° 0.1 mm 1 mps 679 mmHg 77%
    18:00 +24°C° 0.1 mm 1 mps 679 mmHg 81%
    19:00 +23°C° 0 mm 1 mps 680 mmHg 83%
    20:00 +21°C° 0 mm 0 mps 680 mmHg 86%
    21:00 +20°C° 0 mm 0 mps 681 mmHg 89%
    22:00 +20°C° 0 mm 0 mps 681 mmHg 89%
    23:00 +20°C° 0 mm 0 mps 681 mmHg 89%

    Day after tomorrow, 25 April, Thursday

    Time Temperature Precipitation Wind Pressure Humidity
    00:00 +21°C° 0 mm 1 mps 680 mmHg 90%
    01:00 +21°C° 0 mm 1 mps 680 mmHg 89%
    02:00 +21°C° 0 mm 1 mps 679 mmHg 89%
    03:00 +20°C° 0 mm 1 mps 679 mmHg 88%
    04:00 +21°C° 0 mm 1 mps 679 mmHg 85%
    05:00 +21°C° 0 mm 1 mps 679 mmHg 82%
    06:00 +21°C° 0 mm 1 mps 680 mmHg 79%
    07:00 +24°C° 0 mm 1 mps 681 mmHg 67%
    08:00 +27°C° 0 mm 1 mps 682 mmHg 56%
    09:00 +30°C° 0 mm 1 mps 684 mmHg 44%
    10:00 +31°C° 0 mm 1 mps 683 mmHg 44%
    11:00 +31°C° 0 mm 1 mps 683 mmHg 43%
    12:00 +32°C° 0 mm 1 mps 683 mmHg 43%
    13:00 +30°C° 0.2 mm 1 mps 682 mmHg 51%
    14:00 +29°C° 0.2 mm 1 mps 681 mmHg 59%
    15:00 +27°C° 0.2 mm 1 mps 680 mmHg 67%
    16:00 +26°C° 0.2 mm 1 mps 680 mmHg 73%
    17:00 +23°C° 0.2 mm 0 mps 680 mmHg 79%
    18:00 +22°C° 0.2 mm 0 mps 680 mmHg 85%
    19:00 +22°C° 0.1 mm 0 mps 680 mmHg 87%
    20:00 +21°C° 0.1 mm 0 mps 681 mmHg 90%
    21:00 +21°C° 0.1 mm 0 mps 682 mmHg 92%
    22:00 +21°C° 0.1 mm 0 mps 681 mmHg 93%
    23:00 +21°C° 0.1 mm 0 mps 681 mmHg 93%

    26 April, Friday

    Time Temperature Precipitation Wind Pressure Humidity
    00:00 +20°C° 0.1 mm 0 mps 681 mmHg 94%
    01:00 +20°C° 0 mm 0 mps 681 mmHg 94%
    02:00 +20°C° 0 mm 0 mps 680 mmHg 94%
    03:00 +20°C° 0 mm 0 mps 680 mmHg 95%
    04:00 +20°C° 0 mm 0 mps 680 mmHg 93%
    05:00 +20°C° 0 mm 0 mps 681 mmHg 91%
    06:00 +20°C° 0 mm 0 mps 681 mmHg 90%
    07:00 +25°C° 0 mm 1 mps 682 mmHg 78%
    08:00 +27°C° 0 mm 1 mps 683 mmHg 66%
    09:00 +29°C° 0 mm 1 mps 684 mmHg 54%
    10:00 +31°C° 0 mm 1 mps 683 mmHg 48%
    11:00 +32°C° 0 mm 1 mps 683 mmHg 42%
    12:00 +34°C° 0 mm 1 mps 683 mmHg 36%
    13:00 +32°C° 0.1 mm 1 mps 682 mmHg 43%
    14:00 +30°C° 0.1 mm 1 mps 681 mmHg 49%
    15:00 +29°C° 0.1 mm 1 mps 680 mmHg 56%
    16:00 +27°C° 0.1 mm 1 mps 680 mmHg 64%
    17:00 +26°C° 0.1 mm 1 mps 680 mmHg 73%
    18:00 +22°C° 0.1 mm 0 mps 680 mmHg 81%
    19:00 +21°C° 0 mm 0 mps 680 mmHg 84%
    20:00 +21°C° 0 mm 0 mps 681 mmHg 87%
    21:00 +20°C° 0 mm 0 mps 681 mmHg 90%
    22:00 +20°C° 0 mm 0 mps 681 mmHg 89%
    23:00 +20°C° 0 mm 0 mps 681 mmHg 89%

    27 April, Saturday

    Time Temperature Precipitation Wind Pressure Humidity
    00:00 +19°C° 0 mm 0 mps 680 mmHg 88%
    01:00 +21°C° 0 mm 1 mps 680 mmHg 84%
    02:00 +21°C° 0 mm 1 mps 680 mmHg 79%
    03:00 +21°C° 0 mm 1 mps 679 mmHg 74%
    04:00 +21°C° 0 mm 1 mps 680 mmHg 67%
    05:00 +21°C° 0 mm 1 mps 680 mmHg 60%
    06:00 +21°C° 0 mm 1 mps 680 mmHg 52%
    07:00 +24°C° 0 mm 1 mps 681 mmHg 44%
    08:00 +28°C° 0 mm 1 mps 682 mmHg 36%
    09:00 +31°C° 0 mm 1 mps 683 mmHg 28%
    10:00 +32°C° 0 mm 1 mps 683 mmHg 28%
    11:00 +33°C° 0 mm 1 mps 682 mmHg 27%
    12:00 +35°C° 0 mm 2 mps 682 mmHg 27%
    13:00 +34°C° 0 mm 2 mps 681 mmHg 30%
    14:00 +32°C° 0 mm 2 mps 681 mmHg 34%
    15:00 +32°C° 0 mm 2 mps 680 mmHg 37%
    16:00 +29°C° 0 mm 1 mps 680 mmHg 49%
    17:00 +27°C° 0 mm 1 mps 679 mmHg 61%
    18:00 +24°C° 0 mm 1 mps 679 mmHg 73%
    19:00 +23°C° 0 mm 1 mps 679 mmHg 77%
    20:00 +23°C° 0 mm 1 mps 680 mmHg 81%
    21:00 +22°C° 0 mm 1 mps 680 mmHg 85%
    22:00 +21°C° 0 mm 1 mps 680 mmHg 80%
    23:00 +21°C° 0 mm 1 mps 679 mmHg 75%

    28 April, Sunday

    Time Temperature Precipitation Wind Pressure Humidity
    00:00 +21°C° 0 mm 1 mps 679 mmHg 71%
    01:00 +20°C° 0 mm 1 mps 679 mmHg 63%
    02:00 +20°C° 0 mm 1 mps 678 mmHg 55%
    03:00 +20°C° 0 mm 1 mps 678 mmHg 47%
    04:00 +20°C° 0 mm 1 mps 679 mmHg 44%
    05:00 +20°C° 0 mm 1 mps 679 mmHg 41%
    06:00 +20°C° 0 mm 1 mps 679 mmHg 38%
    07:00 +23°C° 0 mm 1 mps 680 mmHg 35%
    08:00 +27°C° 0 mm 1 mps 681 mmHg 32%
    09:00 +30°C° 0 mm 1 mps 682 mmHg 29%
    10:00 +32°C° 0 mm 1 mps 682 mmHg 28%
    11:00 +33°C° 0 mm 1 mps 682 mmHg 28%
    12:00 +35°C° 0 mm 1 mps 682 mmHg 28%
    13:00 +34°C° 0 mm 1 mps 681 mmHg 31%
    14:00 +34°C° 0 mm 2 mps 680 mmHg 35%
    15:00 +32°C° 0 mm 2 mps 679 mmHg 39%
    16:00 +30°C° 0 mm 1 mps 679 mmHg 50%
    17:00 +27°C° 0 mm 1 mps 679 mmHg 61%
    18:00 +25°C° 0 mm 1 mps 679 mmHg 72%
    19:00 +24°C° 0 mm 1 mps 679 mmHg 76%
    20:00 +23°C° 0 mm 1 mps 680 mmHg 80%
    21:00 +23°C° 0 mm 1 mps 680 mmHg 84%
    22:00 +22°C° 0 mm 1 mps 680 mmHg 83%
    23:00 +22°C° 0 mm 1 mps 679 mmHg 83%
    Show more